[[{"header":{"parameterUnit":"m.s-1","parameterCategory":1,"la1":30.2991,"la2":30.254,"lo1":-89.0895,"lo2":-89.0444,"dy":0.0017,"dx":0.0017,"nx":28,"ny":28,"refTime":"2025-06-15T09:00:00:Z","depth":0,"parameterNumber":2,"parameterNumberName":"U-component_of_WINDS"},"data":[0,0,0,0,0,0,0,0,0,0,0,0,0,0,0,0,0,0,0,0,0,0,0,0,0,0,0,0,0,0,0,0,0,0,0,0,0,0,0,0,0,0,0,0,0,0,0,0,0,0,0,0,0,0,0,0,0,0,0.4767,0.4768,0,0.4881,0.4882,0.4884,0.4934,0.4934,0.4934,0.4933,0.5053,0.5056,0.5059,0,0,0,0,0,0,0,0,0,0,0,0,0,0.4592,0.4595,0.4766,0.4768,0.4769,0.4881,0.4882,0.4884,0.4934,0.4934,0.4934,0.4933,0.5052,0.5056,0.506,0,0,0,0,0,0,0,0,0,0,0,0,0,0.4683,0.4596,0.4766,0.4808,0.4813,0.488,0.4882,0.4884,0.4934,0.4934,0.4934,0.4933,0.505,0.5055,0.506,0.5096,0,0,0.5076,0.5078,0,0,0,0,0,0,0,0,0.4678,0.469,0.48,0.4805,0.481,0.4893,0.4865,0.4955,0.4934,0.4888,0.4933,0.4933,0.5,0.5009,0.5031,0.5102,0.5107,0.5076,0.5079,0.5081,0.5083,0,0,0,0,0,0,0,0.4672,0.4685,0.4812,0.4802,0.4808,0.4821,0.4834,0.4882,0.4944,0.4892,0.4896,0.4909,0.5003,0.5026,0.5034,0.5109,0.5076,0.508,0.5083,0.5085,0.5214,0.5214,0,0,0,0,0,0,0.4658,0.468,0.4808,0.4815,0.4742,0.4824,0.4838,0.4867,0.4944,0.4955,0.4909,0.4911,0.5018,0.5029,0.5039,0.5086,0.5081,0.5086,0.5089,0.5213,0.5214,0.5214,0,0,0,0,0,0,0.4655,0.4669,0.4804,0.4749,0.4767,0.4827,0.4859,0.4869,0.4893,0.4956,0.4968,0.4921,0.5018,0.5032,0.5081,0.509,0.5088,0.5093,0.5213,0.5214,0.5214,0.518,0,0,0,0,0,0,0.4649,0.4668,0.4682,0.4748,0.4769,0.4844,0.4859,0.4872,0.4901,0.4904,0.4971,0.4982,0.5019,0.5073,0.5086,0.5097,0.5097,0.5212,0.5213,0.5214,0.518,0.5179,0.5178,0,0,0,0,0,0.4643,0.4668,0.4682,0.4698,0.4788,0.4844,0.4856,0.4897,0.4901,0.4916,0.4957,0.498,0.5087,0.5078,0.5093,0.5106,0.5212,0.5213,0.5214,0.5181,0.5179,0.5178,0,0,0,0,0,0,0.4602,0.4678,0.4694,0.4742,0.4786,0.4852,0.4872,0.4895,0.4939,0.4941,0.4991,0.5006,0.5051,0.5083,0.5072,0.5144,0.5152,0.5156,0.5121,0.512,0.5119,0.5111,0.5101,0,0,0,0,0,0.4598,0.4637,0.4701,0.4737,0.4758,0.4811,0.4837,0.4865,0.4913,0.4932,0.4977,0.5023,0.5068,0.5096,0.514,0.5185,0.52,0.5201,0.52,0.5198,0.5201,0.5227,0.5228,0.5217,0.5217,0.5217,0,0,0.4591,0.4637,0.4659,0.473,0.4767,0.4806,0.4827,0.4868,0.4897,0.4939,0.4988,0.5022,0.5077,0.5124,0.5147,0.5153,0.5208,0.52,0.5198,0.5202,0.5228,0.5229,0.523,0.5218,0.5218,0.5218,0,0,0.4599,0.4638,0.4671,0.4708,0.4764,0.4799,0.4807,0.487,0.4894,0.4944,0.4976,0.5012,0.5088,0.5125,0.5154,0.5175,0.5197,0.5188,0.5182,0.5206,0.5207,0.5208,0.5215,0.5217,0.519,0.519,0.519,0,0.4583,0.4643,0.4686,0.4725,0.4755,0.4793,0.4828,0.4862,0.493,0.495,0.4955,0.5049,0.5089,0.5145,0.515,0.5172,0.5183,0.5181,0.5203,0.5205,0.5207,0.5214,0.5217,0.5189,0.5189,0.5189,0.5189,0,0.4621,0.4662,0.4683,0.4746,0.4779,0.4815,0.4863,0.4891,0.4916,0.495,0.5,0.5049,0.5104,0.5119,0.5144,0.5179,0.518,0.5194,0.5202,0.5205,0.5213,0.5216,0.5186,0.5187,0.5187,0.5188,0,0,0.4607,0.4693,0.47,0.4729,0.4793,0.4826,0.4864,0.4916,0.4939,0.4984,0.5018,0.508,0.5092,0.5125,0.5154,0.5176,0.5188,0.5187,0.5189,0.5185,0.523,0.5219,0.5222,0.5204,0.5204,0.5205,0.5225,0,0.4623,0.4693,0.4732,0.4785,0.4823,0.4859,0.4893,0.4936,0.4969,0.5006,0.5043,0.5086,0.5099,0.5119,0.5142,0.5182,0.5198,0.5181,0.5236,0.5237,0.5221,0.5226,0.5216,0.5232,0.5228,0.5229,0.5229,0,0.4652,0.4695,0.4752,0.4811,0.4829,0.4858,0.4909,0.4944,0.4994,0.5016,0.5052,0.5081,0.5123,0.5127,0.5186,0.5173,0.5198,0.5221,0.5222,0.5229,0.5234,0.5233,0.5239,0.5241,0.5235,0.5234,0.5234,0,0.4636,0.4709,0.4752,0.4776,0.4846,0.4865,0.4896,0.4945,0.4974,0.5018,0.5037,0.5086,0.5113,0.5151,0.5192,0.5192,0.5246,0.5255,0.5267,0.5265,0.5277,0.5276,0.5286,0.5292,0.5292,0.5292,0.5292,0,0.465,0.4683,0.4745,0.4772,0.481,0.4854,0.4891,0.4924,0.4968,0.5002,0.5036,0.5068,0.512,0.5158,0.5191,0.5234,0.5246,0.5266,0.5274,0.5263,0.5261,0.528,0.528,0.5293,0.5292,0.5292,0.5292,0,0.4638,0.4681,0.4731,0.4793,0.4809,0.4835,0.4888,0.4915,0.4949,0.4992,0.5004,0.5058,0.5105,0.515,0.5212,0.5234,0.5277,0.5288,0.526,0.5265,0.5274,0.5273,0.5298,0.5304,0.5305,0.5305,0.5305,0,0.4645,0.4671,0.4735,0.476,0.4789,0.4829,0.4858,0.4903,0.4932,0.499,0.501,0.5058,0.51,0.5172,0.5217,0.5265,0.5278,0.5283,0.5285,0.5273,0.5278,0.5276,0.5279,0.5282,0.5282,0.5281,0.5281,0,0.4651,0.4671,0.4712,0.4759,0.4793,0.4833,0.4874,0.4892,0.4945,0.4975,0.5023,0.5054,0.5117,0.5165,0.5218,0.525,0.5274,0.528,0.5285,0.5274,0.5257,0.5267,0.5257,0.528,0.528,0.528,0.528,0.528,0.4649,0.4674,0.4723,0.4767,0.4802,0.484,0.4868,0.4905,0.4945,0.4999,0.5023,0.5071,0.5119,0.5192,0.5224,0.5262,0.5268,0.5276,0.5278,0.5279,0.5277,0.525,0.5272,0.5272,0.5272,0.5272,0.5272,0,0.4658,0.4691,0.473,0.4786,0.4821,0.484,0.4886,0.4914,0.4955,0.4997,0.5037,0.5091,0.5137,0.5185,0.5235,0.5256,0.5268,0.5267,0.5266,0.5273,0.5268,0.5259,0.5256,0.5256,0.5256,0.5256,0.5256,0.5256,0.4666,0.4709,0.4734,0.4795,0.4828,0.4874,0.4899,0.4934,0.4968,0.5026,0.5065,0.5095,0.5141,0.5193,0.5237,0.525,0.5266,0.5262,0.5278,0.5273,0.5274,0.5275,0.5266,0.5265,0.5265,0.528,0.5281,0.5281]},{"header":{"parameterUnit":"m.s-1","parameterCategory":1,"la1":30.2991,"la2":30.254,"lo1":-89.0895,"lo2":-89.0444,"dy":0.0017,"dx":0.0017,"nx":28,"ny":28,"refTime":"2025-06-15T09:00:00:Z","depth":0,"parameterNumber":3,"parameterNumberName":"V-component_of_WINDS"},"data":[0,0,0,0,0,0,0,0,0,0,0,0,0,0,0,0,0,0,0,0,0,0,0,0,0,0,0,0,0,0,0,0,0,0,0,0,0,0,0,0,0,0,0,0,0,0,0,0,0,0,0,0,0,0,0,0,0,0,4.279,4.279,0,4.2755,4.2754,4.2754,4.2698,4.2697,4.2696,4.2695,4.2658,4.2658,4.2658,0,0,0,0,0,0,0,0,0,0,0,0,0,4.281,4.281,4.279,4.279,4.2789,4.2755,4.2754,4.2754,4.2698,4.2697,4.2695,4.2694,4.2658,4.2658,4.2658,0,0,0,0,0,0,0,0,0,0,0,0,0,4.2791,4.281,4.279,4.2757,4.2754,4.2755,4.2754,4.2754,4.2698,4.2697,4.2695,4.2694,4.2658,4.2658,4.2658,4.2688,0,0,4.2657,4.2657,0,0,0,0,0,0,0,0,4.2792,4.279,4.2763,4.276,4.2756,4.2729,4.2748,4.2732,4.2698,4.2719,4.2695,4.2693,4.2683,4.268,4.2677,4.2686,4.2685,4.2657,4.2657,4.2657,4.2657,0,0,0,0,0,0,0,4.2793,4.2791,4.2776,4.2762,4.2758,4.2744,4.274,4.2744,4.271,4.2717,4.2713,4.271,4.268,4.2677,4.2676,4.2684,4.2657,4.2657,4.2657,4.2657,4.2717,4.2719,0,0,0,0,0,0,4.2799,4.2793,4.2777,4.2775,4.277,4.2745,4.274,4.2739,4.271,4.2704,4.2711,4.2707,4.2678,4.2676,4.2674,4.2708,4.2657,4.2657,4.2657,4.2715,4.2717,4.2719,0,0,0,0,0,0,4.28,4.2799,4.2779,4.2783,4.2779,4.2746,4.2746,4.2739,4.2736,4.2705,4.2699,4.2714,4.2677,4.2674,4.2685,4.2706,4.2657,4.2657,4.2713,4.2716,4.2718,4.2776,0,0,0,0,0,0,4.2801,4.2799,4.281,4.2783,4.2779,4.279,4.2747,4.274,4.2736,4.2731,4.2706,4.2701,4.2675,4.2686,4.2685,4.2705,4.2657,4.2711,4.2715,4.2717,4.2772,4.278,4.2787,0,0,0,0,0,4.2802,4.2828,4.2811,4.2809,4.2792,4.2792,4.2789,4.276,4.2738,4.2749,4.2729,4.2701,4.2704,4.2687,4.2686,4.2707,4.271,4.2714,4.2717,4.2769,4.2779,4.2787,0,0,0,0,0,0,4.2857,4.2823,4.2805,4.2823,4.2811,4.2782,4.2795,4.2771,4.2765,4.276,4.2724,4.2719,4.2734,4.2721,4.2703,4.2735,4.2703,4.2706,4.2742,4.2751,4.2759,4.2761,4.2657,0,0,0,0,0,4.2872,4.2874,4.2844,4.2863,4.2858,4.2828,4.2826,4.2805,4.2791,4.2785,4.2766,4.2753,4.2751,4.2751,4.2747,4.277,4.2764,4.2784,4.2791,4.2798,4.2801,4.2813,4.2822,4.2731,4.2731,4.2731,0,0,4.2901,4.2883,4.2886,4.2874,4.2862,4.2865,4.2824,4.2829,4.2831,4.2786,4.2795,4.2781,4.2764,4.2782,4.2788,4.2771,4.2825,4.2802,4.2808,4.2807,4.2818,4.2826,4.2834,4.2733,4.2733,4.2733,0,0,4.2957,4.2943,4.2957,4.2947,4.2929,4.2909,4.2913,4.2888,4.2877,4.2886,4.2853,4.2855,4.2852,4.2842,4.2836,4.289,4.2864,4.289,4.2928,4.294,4.2947,4.2954,4.2973,4.298,4.2893,4.2893,4.2893,0,4.2995,4.2999,4.2968,4.2975,4.2971,4.2931,4.2946,4.2936,4.2919,4.2917,4.2898,4.2895,4.2881,4.2895,4.2909,4.2905,4.2909,4.2892,4.2949,4.2955,4.296,4.2978,4.2985,4.2896,4.2896,4.2896,4.2895,0,4.3048,4.3051,4.3065,4.3049,4.3046,4.3057,4.3028,4.3029,4.3008,4.2991,4.3,4.2983,4.2975,4.2977,4.2956,4.2989,4.2979,4.2956,4.2923,4.2973,4.2989,4.2995,4.2901,4.29,4.2899,4.2898,0,0,4.3136,4.3104,4.311,4.3103,4.3081,4.3083,4.3093,4.3086,4.3087,4.3077,4.3084,4.3083,4.3062,4.3055,4.3034,4.3044,4.3088,4.3019,4.3018,4.3033,4.3124,4.3142,4.315,4.3072,4.3073,4.3074,4.3125,0,4.3187,4.3201,4.3174,4.3195,4.3198,4.3161,4.3169,4.3157,4.3141,4.3141,4.3123,4.3124,4.3095,4.3091,4.31,4.3081,4.3106,4.3077,4.3078,4.3078,4.3083,4.3158,4.3177,4.3226,4.3131,4.3132,4.3133,0,4.3248,4.3241,4.3263,4.3241,4.3241,4.3249,4.3241,4.3242,4.3228,4.3215,4.3209,4.3184,4.3192,4.3161,4.3172,4.3153,4.3152,4.3143,4.3144,4.3143,4.3108,4.3159,4.3241,4.3249,4.3143,4.3142,4.3141,0,4.3311,4.3307,4.3319,4.3314,4.3289,4.3296,4.3286,4.327,4.3268,4.3261,4.3259,4.3253,4.325,4.3246,4.322,4.32,4.3235,4.3201,4.3225,4.3225,4.3233,4.3233,4.3316,4.3233,4.3233,4.3233,4.3233,0,4.337,4.3385,4.3347,4.3355,4.337,4.3339,4.3355,4.3341,4.3328,4.3333,4.33,4.3305,4.3271,4.3272,4.3252,4.3265,4.3263,4.3254,4.3248,4.3256,4.3258,4.3255,4.3251,4.3235,4.3234,4.3234,4.3234,0,4.3442,4.3417,4.3428,4.3404,4.3398,4.3411,4.339,4.3396,4.3379,4.3385,4.3385,4.3357,4.3357,4.3331,4.3326,4.3312,4.3333,4.3321,4.3338,4.3334,4.3359,4.3357,4.3443,4.3453,4.3364,4.3365,4.3366,0,4.3481,4.3492,4.3469,4.347,4.3461,4.3463,4.3461,4.3431,4.343,4.3416,4.3424,4.3422,4.3418,4.342,4.3399,4.3395,4.3383,4.3414,4.3382,4.3391,4.3384,4.3383,4.3384,4.342,4.3421,4.3422,4.3423,0,4.3554,4.3542,4.354,4.3534,4.3533,4.3527,4.3519,4.3521,4.3489,4.349,4.349,4.3487,4.3482,4.348,4.3473,4.3462,4.3438,4.3433,4.3438,4.3447,4.3456,4.3452,4.3356,4.3431,4.343,4.343,4.3429,4.3429,4.3611,4.3618,4.3604,4.3603,4.3594,4.3588,4.3593,4.3576,4.3576,4.3569,4.3552,4.3555,4.3542,4.3529,4.3521,4.3523,4.3508,4.3515,4.3517,4.3519,4.3524,4.3456,4.3522,4.3521,4.3521,4.3521,4.3521,0,4.3682,4.3671,4.367,4.3661,4.366,4.3638,4.3628,4.3629,4.3632,4.3622,4.362,4.362,4.3618,4.3598,4.3594,4.36,4.3589,4.36,4.3599,4.3597,4.3538,4.3534,4.3609,4.3609,4.3609,4.3609,4.3609,4.3609,4.3718,4.3731,4.3717,4.3724,4.3713,4.3716,4.3713,4.3707,4.3698,4.37,4.3699,4.3686,4.3672,4.3667,4.3665,4.3659,4.3659,4.3674,4.3665,4.361,4.3601,4.3593,4.3589,4.3675,4.3675,4.3724,4.3724,4.3725]}]]